Location: Kimberly
(42.5380°N, 114.3640°W)
Time: 10:49:33
(UTC-06:00)

X-37B - Pass Details

Date: 08 August 2021
Orbit: 381 x 393 km, 45.0° (Epoch: 29 August)

Event Time Altitude Azimuth Distance (km) Brightness Sun altitude
Exits shadow 04:51:07 28° 298° (WNW) 751 1.8 -17.3°
Maximum altitude 04:52:28 50° 0° (N) 490 1.3 -17.1°
Drops below altitude 10° 04:55:31 10° 78° (ENE) 1,394 4.3 -16.7°
Sets 04:57:37 0° 84° (E) 2,247 5.4 -16.4°
